Regional Weather Roundup
Issued by NWS

Home | Current Version | Previous Version | Graphics & Text | Print | Product List | Glossary On
Versions: 1 2 3 4 5 6 7 8 9 10 11 12 13 14 15 16 17 18 19 20 21 22 23 24 25 26 27 28 29 30 31 32 33 34 35 36 37 38 39 40 41 42 43 44 45 46 47 48 49 50
000
ASUS43 KFSD 270610
RWRSD

WEATHER ROUNDUP FOR SOUTH DAKOTA
NATIONAL WEATHER SERVICE SIOUX FALLS SD
100 AM CDT WED JUL 27 2016

NOTE: "FAIR" INDICATES FEW OR NO CLOUDS BELOW 12,000 FEET WITH NO
SIGNIFICANT WEATHER AND/OR OBSTRUCTIONS TO VISIBILITY.


SDZ001>005-009-010-012>017-270700-
NORTHWEST AND NORTH CENTRAL SOUTH DAKOTA

CITY           SKY/WX    TMP DP  RH WIND       PRES   REMARKS
BUFFALO          N/A     63  60  90 E9        30.03F
FAITH            N/A     65  59  81 N10       30.05S
MOBRIDGE       CLOUDY    69  64  84 N9        29.98R
$$

SDZ012>016-024>037-041>051-057-063-072>074-270700-
SOUTHWEST AND SOUTH CENTRAL SOUTH DAKOTA

CITY           SKY/WX    TMP DP  RH WIND       PRES   REMARKS
RAPID CTY ARPT CLEAR     66  58  75 NW12      30.09R
PIERRE         CLOUDY    69  63  81 NW5       29.97R
CUSTER         CLEAR     61  53  75 NE8       30.22R
ELLSWORTH AFB  CLEAR     69  59  70 N7        30.09R
PHILIP         CLOUDY    70  63  78 N7        29.99R
PINE RIDGE     CLOUDY    61  60  97 SW8       30.07R
WINNER         MOCLDY    68  59  73 S32G45    29.94F
$$

SDZ004>011-016>023-039-040-270700-
NORTHEAST SOUTH DAKOTA

CITY           SKY/WX    TMP DP  RH WIND       PRES   REMARKS
ABERDEEN       CLOUDY    70  64  81 NE13G21   29.97R
WATERTOWN      CLOUDY    72  64  76 E6        29.96F
BROOKINGS      CLOUDY    71  67  87 SE10      29.96F
SISSETON         N/A     67  65  93 NW3       29.98R
$$

SDZ017-020-022-023-036>040-048>070-270700-
SOUTHEAST SOUTH DAKOTA

CITY           SKY/WX    TMP DP  RH WIND       PRES   REMARKS
SIOUX FALLS    CLOUDY    75  64  68 S13       29.99R
HURON          CLOUDY    75  66  73 S5        29.91F
CHAMBERLAIN    CLOUDY    71  64  77 S7        29.97R
MITCHELL       CLOUDY    74  68  81 NW6       29.93F
YANKTON        CLOUDY    73  64  73 S9        29.96S
$$

ABBREVIATIONS USED IN REMARKS
   TC - TEMPERATURE IN CELSIUS
  WCI - WIND CHILL INDEX
   HX - HEAT INDEX
  VSB - VISIBILITY





USA.gov is the U.S. government's official web portal to all federal, state and local government web resources and services.